Lambertville, MI

2:02 AM EDT on August 18, 2017 (GMT -0400)
Lambertville

Weather History for KDUH - November, 2013

Change the Weather History Date:

Monday, November 11, 2013

  Actual Average (KTOL) Record (KTOL)
Temperature  
Mean Temperature 40 °F -  
Max Temperature 48 °F 46 °F 73 °F (1927)
Min Temperature 32 °F 31 °F 19 °F (1960)
Degree Days  
Heating Degree Days 25    
Moisture  
Dew Point 32 °F    
Average Humidity 75    
Maximum Humidity 93    
Minimum Humidity 57    
Precipitation  
Precipitation 0.00 in - - ()
Sea Level Pressure  
Sea Level Pressure 30.16 in    
Wind  
Wind Speed 7 mph (West)    
Max Wind Speed 16 mph    
Max Gust Speed 24 mph    
Visibility 8 miles    
Events Rain , Snow    
Averages and records for this station are not official NWS values.
T = Trace of Precipitation, MM = Missing Value Source: NWS Daily Summary

Daily Weather History Graph

Daily Weather History Graph

Search for Another Location

Airport or City:

Trip Planner

Search our weather history database for the weather conditions in past years. The results will help you decide how hot, cold, wet, or windy it might be!

Date:

Astronomy

Nov. 11, 2013 Rise Set
Actual Time 7:19 AM EST 5:17 PM EST
Civil Twilight 6:49 AM EST 5:47 PM EST
Nautical Twilight 6:16 AM EST 6:20 PM EST
Astronomical Twilight 5:43 AM EST 6:53 PM EST
Moon 2:02 PM EST (11/11) 12:58 AM EST (11/11)
Length of Visible Light 10h 57m
Length of Day
9h 58m
Waxing Gibbous, 66% of the Moon is Illuminated
Nov 11
Waxing Gibbous
Nov 17
Full
Nov 25
Last Quarter
Dec 2
New
Dec 9
First Quarter

Hourly Weather History & Observations

Time (EST) Temp. Windchill Dew Point Humidity Pressure Visibility Wind Dir Wind Speed Gust Speed Precip Events Conditions
12:15 AM 37.4 °F 34.9 °F 32.0 °F 81% 30.26 in 10.0 mi WSW 3.5 mph - N/A   Clear
12:35 AM 37.4 °F 34.9 °F 32.0 °F 81% 30.26 in 10.0 mi WSW 3.5 mph - N/A   Clear
12:55 AM 37.4 °F - 32.0 °F 81% 30.25 in 10.0 mi Calm Calm - N/A   Clear
1:15 AM 37.4 °F - 32.0 °F 81% 30.25 in 10.0 mi Calm Calm - N/A   Scattered Clouds
1:35 AM 37.4 °F 33.8 °F 32.0 °F 81% 30.24 in 10.0 mi SSW 4.6 mph - N/A   Mostly Cloudy
1:55 AM 37.4 °F 33.8 °F 32.0 °F 81% 30.24 in 10.0 mi SSW 4.6 mph - N/A   Overcast
2:15 AM 37.4 °F 33.8 °F 32.0 °F 81% 30.24 in 10.0 mi SSW 4.6 mph - N/A   Overcast
2:35 AM 37.4 °F 33.8 °F 32.0 °F 81% 30.22 in 10.0 mi South 4.6 mph - N/A   Mostly Cloudy
2:55 AM 37.4 °F 33.8 °F 32.0 °F 81% 30.22 in 10.0 mi SSW 4.6 mph - N/A   Mostly Cloudy
3:15 AM 37.4 °F 32.8 °F 32.0 °F 81% 30.21 in 10.0 mi SSW 5.8 mph - N/A   Overcast
3:35 AM 39.2 °F 34.2 °F 32.0 °F 75% 30.20 in 10.0 mi SSW 6.9 mph - N/A   Overcast
3:55 AM 39.2 °F 34.2 °F 32.0 °F 75% 30.19 in 10.0 mi SSW 6.9 mph - N/A   Overcast
4:15 AM 37.4 °F 30.8 °F 32.0 °F 81% 30.17 in 10.0 mi SSW 9.2 mph - N/A   Overcast
4:35 AM 37.4 °F 32.8 °F 32.0 °F 81% 30.17 in 10.0 mi SSW 5.8 mph - N/A   Overcast
4:55 AM 39.2 °F 35.0 °F 32.0 °F 75% 30.17 in 10.0 mi SW 5.8 mph - N/A   Overcast
5:15 AM 39.2 °F 34.2 °F 32.0 °F 75% 30.17 in 10.0 mi SSW 6.9 mph - N/A   Overcast
5:35 AM 39.2 °F 37.0 °F 32.0 °F 75% 30.17 in 10.0 mi SSW 3.5 mph - N/A   Overcast
5:55 AM 39.2 °F 37.0 °F 32.0 °F 75% 30.17 in 10.0 mi SSW 3.5 mph - N/A   Overcast
6:15 AM 41.0 °F 36.4 °F 32.0 °F 70% 30.15 in 10.0 mi SSW 6.9 mph - N/A   Overcast
6:35 AM 41.0 °F 34.7 °F 32.0 °F 70% 30.13 in 10.0 mi SSW 10.4 mph - N/A   Overcast
6:55 AM 41.0 °F 35.8 °F 32.0 °F 70% 30.13 in 10.0 mi SW 8.1 mph 16.1 mph N/A   Overcast
7:15 AM 42.8 °F 37.5 °F 32.0 °F 66% 30.13 in 10.0 mi SSW 9.2 mph 17.3 mph N/A   Overcast
7:35 AM 42.8 °F 38.6 °F 32.0 °F 66% 30.13 in 10.0 mi SSW 6.9 mph 16.1 mph N/A   Overcast
7:55 AM 42.8 °F 37.0 °F 32.0 °F 66% 30.12 in 10.0 mi SSW 10.4 mph 18.4 mph N/A   Overcast
8:15 AM 42.8 °F 37.0 °F 32.0 °F 66% 30.11 in 10.0 mi SSW 10.4 mph 17.3 mph N/A   Overcast
8:35 AM 42.8 °F 35.8 °F 32.0 °F 66% 30.11 in 10.0 mi SSW 13.8 mph 21.9 mph N/A   Overcast
8:55 AM 42.8 °F 37.5 °F 32.0 °F 66% 30.10 in 10.0 mi SW 9.2 mph 19.6 mph N/A   Overcast
9:15 AM 42.8 °F 37.0 °F 32.0 °F 66% 30.11 in 10.0 mi SW 10.4 mph 16.1 mph N/A   Overcast
9:35 AM 44.6 °F 39.7 °F 32.0 °F 61% 30.10 in 10.0 mi SW 9.2 mph - N/A   Overcast
9:55 AM 44.6 °F 38.4 °F 32.0 °F 61% 30.09 in 10.0 mi WSW 12.7 mph 18.4 mph N/A   Overcast
10:15 AM 44.6 °F 39.2 °F 32.0 °F 61% 30.09 in 10.0 mi WSW 10.4 mph 23.0 mph N/A   Overcast
10:35 AM 44.6 °F 39.7 °F 32.0 °F 61% 30.09 in 10.0 mi WSW 9.2 mph 18.4 mph N/A   Overcast
10:55 AM 44.6 °F 39.2 °F 32.0 °F 61% 30.10 in 10.0 mi WSW 10.4 mph 16.1 mph N/A   Overcast
11:15 AM 46.4 °F 41.1 °F 32.0 °F 57% 30.08 in 10.0 mi WSW 11.5 mph - N/A   Overcast
11:35 AM 46.4 °F 41.1 °F 32.0 °F 57% 30.08 in 10.0 mi WSW 11.5 mph - N/A   Overcast
11:55 AM 46.4 °F 41.1 °F 32.0 °F 57% 30.07 in 10.0 mi WSW 11.5 mph 19.6 mph N/A   Overcast
12:15 PM 46.4 °F 41.5 °F 32.0 °F 57% 30.06 in 10.0 mi WSW 10.4 mph 16.1 mph N/A   Overcast
12:35 PM 46.4 °F 41.1 °F 32.0 °F 57% 30.05 in 10.0 mi WSW 11.5 mph - N/A   Overcast
12:55 PM 46.4 °F 41.1 °F 32.0 °F 57% 30.04 in 10.0 mi WSW 11.5 mph - N/A   Overcast
1:15 PM 46.4 °F 41.1 °F 32.0 °F 57% 30.04 in 10.0 mi WSW 11.5 mph - N/A   Overcast
1:35 PM 48.2 °F - 33.8 °F 58% 30.04 in 10.0 mi West 9.2 mph 16.1 mph N/A   Overcast
1:55 PM 46.4 °F 41.1 °F 33.8 °F 62% 30.04 in 10.0 mi West 11.5 mph 18.4 mph N/A   Overcast
2:15 PM 44.6 °F 41.4 °F 37.4 °F 76% 30.05 in 7.0 mi WNW 5.8 mph - N/A Rain Light Rain
2:35 PM 44.6 °F 40.7 °F 37.4 °F 76% 30.04 in 10.0 mi West 6.9 mph - N/A   Light Drizzle
2:55 PM 42.8 °F 38.6 °F 37.4 °F 81% 30.05 in 5.0 mi West 6.9 mph - N/A Rain Light Rain
3:15 PM 42.8 °F 38.6 °F 37.4 °F 81% 30.05 in 7.0 mi West 6.9 mph - N/A Rain Light Rain
3:35 PM 42.8 °F 38.0 °F 37.4 °F 81% 30.05 in 5.0 mi West 8.1 mph - N/A Rain Light Rain
3:55 PM 42.8 °F 37.5 °F 39.2 °F 87% 30.06 in 4.0 mi West 9.2 mph - N/A Rain Light Rain
4:15 PM 42.8 °F 38.0 °F 39.2 °F 87% 30.07 in 4.0 mi WNW 8.1 mph - N/A Rain Rain
4:35 PM 42.8 °F 37.0 °F 37.4 °F 81% 30.08 in 4.0 mi NW 10.4 mph 16.1 mph N/A Rain Rain
4:55 PM 41.0 °F 34.3 °F 35.6 °F 81% 30.10 in 4.0 mi NNW 11.5 mph 16.1 mph N/A Rain Light Rain
5:15 PM 37.4 °F 28.2 °F 33.8 °F 87% 30.11 in 7.0 mi NNW 16.1 mph 19.6 mph N/A   Overcast
5:35 PM 37.4 °F 29.3 °F 33.8 °F 87% 30.12 in 5.0 mi North 12.7 mph 16.1 mph N/A Snow Light Snow
5:55 PM 35.6 °F 27.5 °F 32.0 °F 87% 30.13 in 5.0 mi NNW 11.5 mph 17.3 mph N/A   Overcast
6:15 PM 33.8 °F 25.3 °F 32.0 °F 93% 30.15 in 4.0 mi NNW 11.5 mph 16.1 mph N/A Snow Light Snow
6:35 PM 33.8 °F 26.4 °F 32.0 °F 93% 30.17 in 2.0 mi North 9.2 mph 18.4 mph N/A Snow Light Snow
6:55 PM 33.8 °F 25.8 °F 32.0 °F 93% 30.18 in 2.5 mi North 10.4 mph 16.1 mph N/A Snow Light Snow
7:15 PM 32.0 °F 21.2 °F 30.2 °F 93% 30.18 in 2.5 mi North 16.1 mph 24.2 mph N/A Snow Light Snow
7:35 PM 32.0 °F 24.8 °F 30.2 °F 93% 30.20 in 2.0 mi North 8.1 mph 17.3 mph N/A Snow Light Snow
7:55 PM 32.0 °F 23.6 °F 28.4 °F 87% 30.21 in 2.0 mi North 10.4 mph 23.0 mph N/A Snow Light Snow
8:15 PM 32.0 °F 23.6 °F 28.4 °F 87% 30.23 in 4.0 mi North 10.4 mph - N/A Snow Light Snow
8:35 PM 32.0 °F 24.8 °F 28.4 °F 87% 30.23 in 5.0 mi NNW 8.1 mph - N/A Snow Light Snow
8:55 PM 32.0 °F 26.4 °F 28.4 °F 87% 30.24 in 7.0 mi North 5.8 mph - N/A Snow Light Snow
9:15 PM 32.0 °F 26.4 °F 28.4 °F 87% 30.25 in 7.0 mi North 5.8 mph - N/A Snow Light Snow
9:35 PM 32.0 °F 25.6 °F 26.6 °F 80% 30.25 in 10.0 mi NNW 6.9 mph - N/A   Overcast
9:55 PM 32.0 °F 24.8 °F 26.6 °F 80% 30.26 in 10.0 mi North 8.1 mph - N/A   Overcast
10:15 PM 32.0 °F 27.5 °F 26.6 °F 80% 30.27 in 10.0 mi North 4.6 mph - N/A   Mostly Cloudy
10:35 PM 32.0 °F 23.0 °F 26.6 °F 80% 30.28 in 10.0 mi NNW 11.5 mph 21.9 mph N/A   Scattered Clouds
10:55 PM 32.0 °F 23.6 °F 23.0 °F 69% 30.29 in 10.0 mi North 10.4 mph 20.7 mph N/A   Clear
11:15 PM 32.0 °F 24.8 °F 23.0 °F 69% 30.30 in 10.0 mi NNW 8.1 mph - N/A   Clear
11:35 PM 32.0 °F 22.5 °F 23.0 °F 69% 30.30 in 10.0 mi North 12.7 mph 23.0 mph N/A   Clear
11:55 PM 32.0 °F 23.6 °F 23.0 °F 69% 30.31 in 10.0 mi NNW 10.4 mph - N/A   Clear